Miscellaneous Local Product
Issued by NWS North Platte, NE

Home | Current Version | Previous Version | Graphics & Text | Print | Product List | Glossary On
Versions: 1 2 3 4 5 6 7 8 9 10 11 12 13 14 15 16 17 18 19 20 21 22 23 24 25 26 27 28 29 30 31 32 33 34 35 36 37 38 39 40 41 42 43 44 45 46 47 48 49 50
556
AXUS43 KLBF 251410
MISLBF


WESTERN AND NORTH CENTRAL NEBRASKA HOURLY WEATHER ROUNDUP
NATIONAL WEATHER SERVICE NORTH PLATTE NE
900 AM CDT MON JUL 25 2016

NOTE: "FAIR" INDICATES FEW OR NO CLOUDS BELOW 12,000 FEET WITH NO
SIGNIFICANT WEATHER AND/OR OBSTRUCTIONS TO VISIBILITY.

NOTE: STATIONS NOT REPORTING VARIABLES SUCH AS SKY/WEATHER OR
PRESSURE ARE PROVIDED BY RAWS AND APRS NETWORKS AND ARE NOT UNDER
NATIONAL WEATHER SERVICE QUALITY CONTROL.

...OBSERVATIONS IN AND NEAR THE EASTERN PANHANDLE OF NEBRASKA...

CITY           SKY/WX    TMP DP  RH WIND       PRES   REMARKS
PINE RIDGE     SUNNY     72  61  68 S9        30.14F
CHADRON        SUNNY     74  55  51 S16       30.13S
ALLIANCE       SUNNY     66  61  84 S12       30.18S
SIDNEY         SUNNY     67  57  70 SE14      30.21F
CRESCENT LAKE    N/A     67  62  83 S7          N/A
$$

...OBSERVATIONS IN NORTHERN NEBRASKA AND FAR SOUTHERN SOUTH DAKOTA...

CITY           SKY/WX    TMP DP  RH WIND       PRES   REMARKS
WINNER         FAIR      75  52  44 S16       30.13R
VALENTINE      SUNNY     73  59  61 S12       30.16R
THEDFORD       SUNNY     73  62  68 S9        30.19S
AINSWORTH      SUNNY     73  54  51 S8        30.17R
O`NEILL        SUNNY     73  57  56 SE5       30.17R
ORD            CLOUDY    68  60  75 S3        30.17R
BROKEN BOW     MOSUNNY   67  60  78 SE8       30.19R
VALENTINE NWR    N/A     68  62  79 S6          N/A
BUTTE            N/A     70  59  68 S3          N/A
HALSEY           N/A     68  61  77 S5          N/A
EWING            N/A     71  65  81 CALM        N/A
$$

...OBSERVATIONS IN SOUTHWEST NEBRASKA AND FAR NORTHEAST COLORADO...

CITY           SKY/WX    TMP DP  RH WIND       PRES   REMARKS
HOLYOKE        FAIR      68  59  73 W7        30.20S
IMPERIAL       SUNNY     67  61  81 E5        30.20R
OGALLALA       SUNNY     69  63  80 SE7       30.20S
NORTH PLATTE   SUNNY     68  64  87 E8        30.19R
MCCOOK         SUNNY     70  63  78 E9        30.17R
LEXINGTON      CLOUDY    70  63  78 E6        30.19R
STAPLETON        N/A     68  64  85 CALM        N/A
GOTHENBURG       N/A     66  60  80 E3          N/A
CALLAWAY         N/A     64  61  89 SE8         N/A
$$

...OBSERVATIONS IN CENTRAL LINCOLN COUNTY AREA...

CITY           SKY/WX    TMP DP  RH WIND       PRES   REMARKS
N.P. AIRPORT   SUNNY     68  64  87 E8        30.19R
N.P. DOWNTOWN    N/A     71  64  78 SE3         N/A
N.P. SOUTHEAST   N/A     69  64  83 SE3         N/A
N.P. HILLCREST   N/A     69  64  83 SE9         N/A
$$

...SOME OBSERVATIONS FROM AROUND THE REGION...

CITY           SKY/WX    TMP DP  RH WIND       PRES   REMARKS
DENVER         MOSUNNY   67  55  65 E5        30.21R
LARAMIE        SUNNY     62  45  53 S3        30.33R
CHEYENNE       SUNNY     64  55  72 S3        30.24S
SCOTTSBLUFF    SUNNY     66  56  70 SE12      30.18R
RAPID CITY     SUNNY     73  57  57 S21       30.09S
BISMARCK       SUNNY     71  62  73 SE5       30.00S
PIERRE         SUNNY     77  59  53 S8        30.06S
SIOUX FALLS    MOSUNNY   74  63  68 CALM      30.12S
OMAHA          MOSUNNY   72  65  78 NW3       30.11S
GRAND ISLAND   CLOUDY    70  63  78 VRB5      30.19R
KANSAS CITY    CLOUDY    74  67  78 NE10      30.08R
WICHITA        CLOUDY    74  68  81 NE23G29   30.04R
OKLAHOMA CITY  MOSUNNY   84  69  60 NE7       30.03S
DALLAS         CLOUDY    84  73  69 CALM      29.98R HX  90
AMARILLO       SUNNY     77  63  61 SE3       30.15R
DODGE CITY     PTSUNNY   69  67  93 NE15      30.14R
HAYS           MOSUNNY   70  61  73 E18       30.11R
GOODLAND       SUNNY     68  60  75 CALM      30.19S
$$




USA.gov is the U.S. government's official web portal to all federal, state and local government web resources and services.